Regional Weather Roundup
Issued by NWS

Home | Current Version | Previous Version | Text Only | Print | Product List | Glossary Off
Versions: 1 2 3 4 5 6 7 8 9 10 11 12 13 14 15 16 17 18 19 20 21 22 23 24 25 26 27 28 29 30 31 32 33 34 35 36 37 38 39 40 41 42 43 44 45 46 47 48 49 50

000
ASUS43 KFSD 090210
RWRSD

WEATHER ROUNDUP FOR SOUTH DAKOTA
NATIONAL WEATHER SERVICE SIOUX FALLS SD
800 PM CST THU DEC 08 2016

NOTE: "FAIR" INDICATES FEW OR NO CLOUDS BELOW 12,000 FEET WITH NO
SIGNIFICANT WEATHER AND/OR OBSTRUCTIONS TO VISIBILITY.


SDZ001>005-009-010-012>017-090300-
NORTHWEST AND NORTH CENTRAL SOUTH DAKOTA

CITY           SKY/WX    TMP DP  RH WIND       PRES   REMARKS
BUFFALO          N/A     -5  -9  83 NE8       30.37F WCI -20
FAITH            N/A     -7  -9  91 CALM      30.52F
MOBRIDGE       CLOUDY     1  -6  72 NW9       30.57F WCI -14
$$

SDZ012>016-024>037-041>051-057-063-072>074-090300-
SOUTHWEST AND SOUTH CENTRAL SOUTH DAKOTA

CITY           SKY/WX    TMP DP  RH WIND       PRES   REMARKS
RAPID CTY ARPT CLOUDY     0  -7  72 CALM      30.45F
PIERRE         CLOUDY     5  -2  72 N8        30.61F WCI  -8
CUSTER         CLOUDY    -4 -10  75 CALM      30.21F
ELLSWORTH AFB  CLOUDY     2  -6  69 CALM      30.43F
PHILIP         CLOUDY    -5  -9  83 CALM      30.58F
PINE RIDGE     CLOUDY    -5 -10  79 E5        30.44F WCI -16
SPEARFISH      FAIR      -6 -13  71 SW5       30.36F WCI -17
WINNER         FAIR       3  -3  76 NW6       30.60S WCI  -8
$$

SDZ004>011-016>023-039-040-090300-
NORTHEAST SOUTH DAKOTA

CITY           SKY/WX    TMP DP  RH WIND       PRES   REMARKS
ABERDEEN       CLEAR      1  -5  75 NW8       30.64S WCI -13
WATERTOWN      CLEAR      4   0  83 NW10      30.55S WCI -11
BROOKINGS      CLEAR      6   2  83 NW9       30.56R WCI  -8
SISSETON         N/A      4  -2  76 N12       30.59S WCI -12
$$

SDZ017-020-022-023-036>040-048>070-090300-
SOUTHEAST SOUTH DAKOTA

CITY           SKY/WX    TMP DP  RH WIND       PRES   REMARKS
SIOUX FALLS    CLEAR     10   6  84 NW12      30.59S WCI  -5
HURON          CLEAR      2  -1  88 NW7       30.64S WCI -11
CHAMBERLAIN    FLURRIES   8   4  84 NW8       30.63S WCI  -5
MITCHELL       CLEAR      7   2  80 NW13      30.66S WCI  -9
YANKTON        CLEAR     10   3  72 NW10      30.63S WCI  -3
$$

ABBREVIATIONS USED IN REMARKS
   TC - TEMPERATURE IN CELSIUS
  WCI - WIND CHILL INDEX
   HX - HEAT INDEX
  VSB - VISIBILITY





USA.gov is the U.S. government's official web portal to all federal, state and local government web resources and services.